Year,Month,Day,Hour,Minute,Value (Times are PST for temperature in C)
2010,09,16,00,00,13.20
2010,09,16,00,01,13.20
2010,09,16,00,02,13.30
2010,09,16,00,03,13.30
2010,09,16,00,04,13.30
2010,09,16,00,05,13.30
2010,09,16,00,06,13.30
2010,09,16,00,07,13.30
2010,09,16,00,08,13.30
2010,09,16,00,09,13.30
2010,09,16,00,10,13.30
2010,09,16,00,11,13.30
2010,09,16,00,12,13.30
2010,09,16,00,13,13.30
2010,09,16,00,14,13.30
2010,09,16,00,15,13.30
2010,09,16,00,16,13.30
2010,09,16,00,17,13.30
2010,09,16,00,18,13.30
2010,09,16,00,19,13.30
2010,09,16,00,20,13.30
2010,09,16,00,21,13.30
2010,09,16,00,22,13.30
2010,09,16,00,23,13.30
2010,09,16,00,24,13.30
2010,09,16,00,25,13.30
2010,09,16,00,26,13.30
2010,09,16,00,27,13.30
2010,09,16,00,28,13.30
2010,09,16,00,29,13.30
2010,09,16,00,30,13.30
2010,09,16,00,31,13.30
2010,09,16,00,32,13.30
2010,09,16,00,33,13.30
2010,09,16,00,34,13.30
2010,09,16,00,35,13.40
2010,09,16,00,36,13.40
2010,09,16,00,37,13.40
2010,09,16,00,38,13.40
2010,09,16,00,39,13.40
2010,09,16,00,40,13.40
2010,09,16,00,41,13.50
2010,09,16,00,42,13.50
2010,09,16,00,43,13.50
2010,09,16,00,44,13.50
2010,09,16,00,45,13.60
2010,09,16,00,46,13.60
2010,09,16,00,47,13.60
2010,09,16,00,48,13.60
2010,09,16,00,49,13.60
2010,09,16,00,50,13.60
2010,09,16,00,51,13.60
2010,09,16,00,52,13.60
2010,09,16,00,53,13.60
2010,09,16,00,54,13.70
2010,09,16,00,55,13.70
2010,09,16,00,56,13.70
2010,09,16,00,57,13.70
2010,09,16,00,58,13.70
2010,09,16,00,59,13.70
2010,09,16,01,00,13.70
2010,09,16,01,01,13.70
2010,09,16,01,02,13.70
2010,09,16,01,03,13.70
2010,09,16,01,04,13.70
2010,09,16,01,05,13.70
2010,09,16,01,06,13.60
2010,09,16,01,07,13.60
2010,09,16,01,08,13.60
2010,09,16,01,09,13.60
2010,09,16,01,10,13.60
2010,09,16,01,11,13.60
2010,09,16,01,12,13.60
2010,09,16,01,13,13.60
2010,09,16,01,14,13.60
2010,09,16,01,15,13.60
2010,09,16,01,16,13.60
2010,09,16,01,17,13.60
2010,09,16,01,18,13.60
2010,09,16,01,19,13.60
2010,09,16,01,20,13.60
2010,09,16,01,21,13.60
2010,09,16,01,22,13.60
2010,09,16,01,23,13.50
2010,09,16,01,24,13.60
2010,09,16,01,25,13.60
2010,09,16,01,26,13.60
2010,09,16,01,27,13.60
2010,09,16,01,28,13.60
2010,09,16,01,29,13.60
2010,09,16,01,30,13.60
2010,09,16,01,31,13.60
2010,09,16,01,32,13.60
2010,09,16,01,33,13.60
2010,09,16,01,34,13.60
2010,09,16,01,35,13.60
2010,09,16,01,36,13.60
2010,09,16,01,37,13.60
2010,09,16,01,38,13.60
2010,09,16,01,39,13.60
2010,09,16,01,40,13.60
2010,09,16,01,41,13.60
2010,09,16,01,42,13.60
2010,09,16,01,43,13.60
2010,09,16,01,44,13.70
2010,09,16,01,45,13.70
2010,09,16,01,46,13.70
2010,09,16,01,47,13.70
2010,09,16,01,48,13.70
2010,09,16,01,49,13.70
2010,09,16,01,50,13.70
2010,09,16,01,51,13.70
2010,09,16,01,52,13.70
2010,09,16,01,53,13.70
2010,09,16,01,54,13.70
2010,09,16,01,55,13.70
2010,09,16,01,56,13.70
2010,09,16,01,57,13.70
2010,09,16,01,58,13.70
2010,09,16,01,59,13.70
2010,09,16,02,00,13.70
2010,09,16,02,01,13.70
2010,09,16,02,02,13.70
2010,09,16,02,03,13.70
2010,09,16,02,04,13.70
2010,09,16,02,05,13.70
2010,09,16,02,06,13.70
2010,09,16,02,07,13.70
2010,09,16,02,08,13.70
2010,09,16,02,09,13.70
2010,09,16,02,10,13.70
2010,09,16,02,11,13.70
2010,09,16,02,12,13.70
2010,09,16,02,13,13.70
2010,09,16,02,14,13.70
2010,09,16,02,15,13.70
2010,09,16,02,16,13.70
2010,09,16,02,17,13.70
2010,09,16,02,18,13.70
2010,09,16,02,19,13.60
2010,09,16,02,20,13.60
2010,09,16,02,21,13.60
2010,09,16,02,22,13.60
2010,09,16,02,23,13.60
2010,09,16,02,24,13.60
2010,09,16,02,25,13.60
2010,09,16,02,26,13.60
2010,09,16,02,27,13.60
2010,09,16,02,28,13.50
2010,09,16,02,29,13.50
2010,09,16,02,30,13.50
2010,09,16,02,31,13.50
2010,09,16,02,32,13.50
2010,09,16,02,33,13.50
2010,09,16,02,34,13.50
2010,09,16,02,35,13.50
2010,09,16,02,36,13.50
2010,09,16,02,37,13.50
2010,09,16,02,38,13.50
2010,09,16,02,39,13.50
2010,09,16,02,40,13.50
2010,09,16,02,41,13.60
2010,09,16,02,42,13.60
2010,09,16,02,43,13.60
2010,09,16,02,44,13.60
2010,09,16,02,45,13.60
2010,09,16,02,46,13.60
2010,09,16,02,47,13.60
2010,09,16,02,48,13.60
2010,09,16,02,49,13.60
2010,09,16,02,50,13.70
2010,09,16,02,51,13.70
2010,09,16,02,52,13.70
2010,09,16,02,53,13.70
2010,09,16,02,54,13.80
2010,09,16,02,55,13.80
2010,09,16,02,56,13.80
2010,09,16,02,57,13.80
2010,09,16,02,58,13.80
2010,09,16,02,59,13.80
2010,09,16,03,00,13.80
2010,09,16,03,01,13.70
2010,09,16,03,02,13.70
2010,09,16,03,03,13.70
2010,09,16,03,04,13.70
2010,09,16,03,05,13.70
2010,09,16,03,06,13.70
2010,09,16,03,07,13.70
2010,09,16,03,08,13.70
2010,09,16,03,09,13.70
2010,09,16,03,10,13.70
2010,09,16,03,11,13.70
2010,09,16,03,12,13.70
2010,09,16,03,13,13.80
2010,09,16,03,14,13.80
2010,09,16,03,15,13.80
2010,09,16,03,16,13.80
2010,09,16,03,17,13.80
2010,09,16,03,18,13.80
2010,09,16,03,19,13.90
2010,09,16,03,20,13.90
2010,09,16,03,21,13.90
2010,09,16,03,22,13.90
2010,09,16,03,23,13.90
2010,09,16,03,24,13.90
2010,09,16,03,25,14.00
2010,09,16,03,26,14.00
2010,09,16,03,27,14.00
2010,09,16,03,28,14.00
2010,09,16,03,29,14.00
2010,09,16,03,30,14.00
2010,09,16,03,31,14.00
2010,09,16,03,32,14.00
2010,09,16,03,33,14.00
2010,09,16,03,34,14.10
2010,09,16,03,35,14.10
2010,09,16,03,36,14.10
2010,09,16,03,37,14.10
2010,09,16,03,38,14.10
2010,09,16,03,39,14.10
2010,09,16,03,40,14.10
2010,09,16,03,41,14.10
2010,09,16,03,42,14.10
2010,09,16,03,43,14.10
2010,09,16,03,44,14.10
2010,09,16,03,45,14.10
2010,09,16,03,46,14.10
2010,09,16,03,47,14.10
2010,09,16,03,48,14.20
2010,09,16,03,49,14.20
2010,09,16,03,50,14.20
2010,09,16,03,51,14.20
2010,09,16,03,52,14.20
2010,09,16,03,53,14.20
2010,09,16,03,54,14.20
2010,09,16,03,55,14.20
2010,09,16,03,56,14.20
2010,09,16,03,57,14.20
2010,09,16,03,58,14.20
2010,09,16,03,59,14.20
2010,09,16,04,00,14.20
2010,09,16,04,01,14.20
2010,09,16,04,02,14.20
2010,09,16,04,03,14.20
2010,09,16,04,04,14.20
2010,09,16,04,05,14.20
2010,09,16,04,06,14.20
2010,09,16,04,07,14.20
2010,09,16,04,08,14.20
2010,09,16,04,09,14.20
2010,09,16,04,10,14.30
2010,09,16,04,11,14.30
2010,09,16,04,12,14.30
2010,09,16,04,13,14.30
2010,09,16,04,14,14.30
2010,09,16,04,15,14.30
2010,09,16,04,16,14.30
2010,09,16,04,17,14.30
2010,09,16,04,18,14.30
2010,09,16,04,19,14.30
2010,09,16,04,20,14.30
2010,09,16,04,21,14.30
2010,09,16,04,22,14.30
2010,09,16,04,23,14.30
2010,09,16,04,24,14.30
2010,09,16,04,25,14.30
2010,09,16,04,26,14.30
2010,09,16,04,27,14.30
2010,09,16,04,28,14.30
2010,09,16,04,29,14.30
2010,09,16,04,30,14.30
2010,09,16,04,31,14.30
2010,09,16,04,32,14.30
2010,09,16,04,33,14.30
2010,09,16,04,34,14.30
2010,09,16,04,35,14.30
2010,09,16,04,36,14.30
2010,09,16,04,37,14.30
2010,09,16,04,38,14.30
2010,09,16,04,39,14.30
2010,09,16,04,40,14.30
2010,09,16,04,41,14.40
2010,09,16,04,42,14.40
2010,09,16,04,43,14.40
2010,09,16,04,44,14.40
2010,09,16,04,45,14.40
2010,09,16,04,46,14.40
2010,09,16,04,47,14.40
2010,09,16,04,48,14.40
2010,09,16,04,49,14.40
2010,09,16,04,50,14.40
2010,09,16,04,51,14.40
2010,09,16,04,52,14.40
2010,09,16,04,53,14.40
2010,09,16,04,54,14.40
2010,09,16,04,55,14.40
2010,09,16,04,56,14.40
2010,09,16,04,57,14.40
2010,09,16,04,58,14.40
2010,09,16,04,59,14.40
2010,09,16,05,00,14.40
2010,09,16,05,01,14.40
2010,09,16,05,02,14.40
2010,09,16,05,03,14.40
2010,09,16,05,04,14.30
2010,09,16,05,05,14.30
2010,09,16,05,06,14.30
2010,09,16,05,07,14.30
2010,09,16,05,08,14.30
2010,09,16,05,09,14.30
2010,09,16,05,10,14.30
2010,09,16,05,11,14.30
2010,09,16,05,12,14.30
2010,09,16,05,13,14.30
2010,09,16,05,14,14.30
2010,09,16,05,15,14.30
2010,09,16,05,16,14.30
2010,09,16,05,17,14.30
2010,09,16,05,18,14.30
2010,09,16,05,19,14.30
2010,09,16,05,20,14.30
2010,09,16,05,21,14.20
2010,09,16,05,22,14.20
2010,09,16,05,23,14.20
2010,09,16,05,24,14.20
2010,09,16,05,25,14.20
2010,09,16,05,26,14.20
2010,09,16,05,27,14.20
2010,09,16,05,28,14.20
2010,09,16,05,29,14.20
2010,09,16,05,30,14.20
2010,09,16,05,31,14.20
2010,09,16,05,32,14.20
2010,09,16,05,33,14.10
2010,09,16,05,34,14.10
2010,09,16,05,35,14.10
2010,09,16,05,36,14.10
2010,09,16,05,37,14.10
2010,09,16,05,38,14.10
2010,09,16,05,39,14.10
2010,09,16,05,40,14.10
2010,09,16,05,41,14.10
2010,09,16,05,42,14.10
2010,09,16,05,43,14.00
2010,09,16,05,44,14.00
2010,09,16,05,45,14.00
2010,09,16,05,46,14.00
2010,09,16,05,47,13.90
2010,09,16,05,48,13.90
2010,09,16,05,49,13.90
2010,09,16,05,50,13.90
2010,09,16,05,51,13.90
2010,09,16,05,52,13.90
2010,09,16,05,53,13.90
2010,09,16,05,54,13.90
2010,09,16,05,55,13.90
2010,09,16,05,56,13.90
2010,09,16,05,57,13.80
2010,09,16,05,58,13.80
2010,09,16,05,59,13.80
2010,09,16,06,00,13.80
2010,09,16,06,01,13.80
2010,09,16,06,02,13.80
2010,09,16,06,03,13.80
2010,09,16,06,04,13.80
2010,09,16,06,05,13.80
2010,09,16,06,06,13.80
2010,09,16,06,07,13.80
2010,09,16,06,08,13.80
2010,09,16,06,09,13.80
2010,09,16,06,10,13.80
2010,09,16,06,11,13.80
2010,09,16,06,12,13.80
2010,09,16,06,13,13.80
2010,09,16,06,14,13.80
2010,09,16,06,15,13.80
2010,09,16,06,16,13.80
2010,09,16,06,17,13.80
2010,09,16,06,18,13.80
2010,09,16,06,19,13.80
2010,09,16,06,20,13.80
2010,09,16,06,21,13.80
2010,09,16,06,22,13.80
2010,09,16,06,23,13.80
2010,09,16,06,24,13.80
2010,09,16,06,25,13.80
2010,09,16,06,26,13.90
2010,09,16,06,27,13.90
2010,09,16,06,28,13.90
2010,09,16,06,29,13.90
2010,09,16,06,30,13.90
2010,09,16,06,31,13.90
2010,09,16,06,32,13.90
2010,09,16,06,33,13.90
2010,09,16,06,34,13.90
2010,09,16,06,35,13.90
2010,09,16,06,36,13.90
2010,09,16,06,37,13.90
2010,09,16,06,38,13.90
2010,09,16,06,39,13.90
2010,09,16,06,40,13.90
2010,09,16,06,41,13.90
2010,09,16,06,42,13.90
2010,09,16,06,43,13.90
2010,09,16,06,44,13.90
2010,09,16,06,45,13.90
2010,09,16,06,46,13.90
2010,09,16,06,47,13.90
2010,09,16,06,48,13.90
2010,09,16,06,49,13.90
2010,09,16,06,50,13.90
2010,09,16,06,51,13.90
2010,09,16,06,52,14.00
2010,09,16,06,53,14.00
2010,09,16,06,54,14.00
2010,09,16,06,55,14.00
2010,09,16,06,56,14.00
2010,09,16,06,57,14.00
2010,09,16,06,58,14.00
2010,09,16,06,59,14.00
2010,09,16,07,00,14.00
2010,09,16,07,01,14.10
2010,09,16,07,02,14.00
2010,09,16,07,03,14.10
2010,09,16,07,04,14.10
2010,09,16,07,05,14.10
2010,09,16,07,06,14.10
2010,09,16,07,07,14.10
2010,09,16,07,08,14.10
2010,09,16,07,09,14.10
2010,09,16,07,10,14.10
2010,09,16,07,11,14.10
2010,09,16,07,12,14.10
2010,09,16,07,13,14.10
2010,09,16,07,14,14.10
2010,09,16,07,15,14.10
2010,09,16,07,16,14.10
2010,09,16,07,17,14.10
2010,09,16,07,18,14.10
2010,09,16,07,19,14.10
2010,09,16,07,20,14.10
2010,09,16,07,21,14.10
2010,09,16,07,22,14.20
2010,09,16,07,23,14.20
2010,09,16,07,24,14.20
2010,09,16,07,25,14.20
2010,09,16,07,26,14.20
2010,09,16,07,27,14.20
2010,09,16,07,28,14.20
2010,09,16,07,29,14.20
2010,09,16,07,30,14.20
2010,09,16,07,31,14.20
2010,09,16,07,32,14.20
2010,09,16,07,33,14.20
2010,09,16,07,34,14.20
2010,09,16,07,35,14.20
2010,09,16,07,36,14.20
2010,09,16,07,37,14.20
2010,09,16,07,38,14.20
2010,09,16,07,39,14.20
2010,09,16,07,40,14.20
2010,09,16,07,41,14.30
2010,09,16,07,42,14.30
2010,09,16,07,43,14.30
2010,09,16,07,44,14.30
2010,09,16,07,45,14.30
2010,09,16,07,46,14.30
2010,09,16,07,47,14.30
2010,09,16,07,48,14.30
2010,09,16,07,49,14.30
2010,09,16,07,50,14.30
2010,09,16,07,51,14.30
2010,09,16,07,52,14.30
2010,09,16,07,53,14.30
2010,09,16,07,54,14.30
2010,09,16,07,55,14.30
2010,09,16,07,56,14.30
2010,09,16,07,57,14.30
2010,09,16,07,58,14.30
2010,09,16,07,59,14.30
2010,09,16,08,00,14.30
2010,09,16,08,01,14.40
2010,09,16,08,02,14.40
2010,09,16,08,03,14.40
2010,09,16,08,04,14.40
2010,09,16,08,05,14.40
2010,09,16,08,06,14.40
2010,09,16,08,07,14.40
2010,09,16,08,08,14.40
2010,09,16,08,09,14.40
2010,09,16,08,10,14.40
2010,09,16,08,11,14.40
2010,09,16,08,12,14.40
2010,09,16,08,13,14.40
2010,09,16,08,14,14.40
2010,09,16,08,15,14.40
2010,09,16,08,16,14.50
2010,09,16,08,17,14.50
2010,09,16,08,18,14.50
2010,09,16,08,19,14.50
2010,09,16,08,20,14.60
2010,09,16,08,21,14.60
2010,09,16,08,22,14.60
2010,09,16,08,23,14.60
2010,09,16,08,24,14.60
2010,09,16,08,25,14.60
2010,09,16,08,26,14.60
2010,09,16,08,27,14.60
2010,09,16,08,28,14.60
2010,09,16,08,29,14.60
2010,09,16,08,30,14.60
2010,09,16,08,31,14.60
2010,09,16,08,32,14.60
2010,09,16,08,33,14.60
2010,09,16,08,34,14.60
2010,09,16,08,35,14.60
2010,09,16,08,36,14.60
2010,09,16,08,37,14.60
2010,09,16,08,38,14.70
2010,09,16,08,39,14.70
2010,09,16,08,40,14.70
2010,09,16,08,41,14.70
2010,09,16,08,42,14.70
2010,09,16,08,43,14.70
2010,09,16,08,44,14.70
2010,09,16,08,45,14.70
2010,09,16,08,46,14.80
2010,09,16,08,47,14.80
2010,09,16,08,48,14.80
2010,09,16,08,49,14.80
2010,09,16,08,50,14.80
2010,09,16,08,51,14.80
2010,09,16,08,52,14.90
2010,09,16,08,53,14.90
2010,09,16,08,54,14.90
2010,09,16,08,55,14.90
2010,09,16,08,56,15.00
2010,09,16,08,57,15.00
2010,09,16,08,58,15.00
2010,09,16,08,59,15.00
2010,09,16,09,00,15.00
2010,09,16,09,01,15.00
2010,09,16,09,02,15.00
2010,09,16,09,03,15.00
2010,09,16,09,04,15.00
2010,09,16,09,05,15.00
2010,09,16,09,06,15.00
2010,09,16,09,07,15.00
2010,09,16,09,08,15.00
2010,09,16,09,09,15.00
2010,09,16,09,10,15.00
2010,09,16,09,11,15.00
2010,09,16,09,12,15.00
2010,09,16,09,13,15.00
2010,09,16,09,14,15.00
2010,09,16,09,15,14.90
2010,09,16,09,16,14.90
2010,09,16,09,17,14.90
2010,09,16,09,18,14.90
2010,09,16,09,19,14.90
2010,09,16,09,20,14.90
2010,09,16,09,21,14.90
2010,09,16,09,22,14.90
2010,09,16,09,23,15.00
2010,09,16,09,24,15.00
2010,09,16,09,25,15.00
2010,09,16,09,26,15.00
2010,09,16,09,27,15.00
2010,09,16,09,28,15.00
2010,09,16,09,29,15.00
2010,09,16,09,30,15.00
2010,09,16,09,31,15.00
2010,09,16,09,32,15.00
2010,09,16,09,33,15.00
2010,09,16,09,34,15.00
2010,09,16,09,35,15.00
2010,09,16,09,36,15.00
2010,09,16,09,37,15.00
2010,09,16,09,38,15.00
2010,09,16,09,39,15.00
2010,09,16,09,40,15.00
2010,09,16,09,41,15.00
2010,09,16,09,42,15.00
2010,09,16,09,43,15.00
2010,09,16,09,44,15.00
2010,09,16,09,45,15.00
2010,09,16,09,46,15.00
2010,09,16,09,47,15.00
2010,09,16,09,48,15.00
2010,09,16,09,49,15.10
2010,09,16,09,50,15.00
2010,09,16,09,51,15.00
2010,09,16,09,52,15.00
2010,09,16,09,53,15.00
2010,09,16,09,54,15.00
2010,09,16,09,55,15.00
2010,09,16,09,56,15.00
2010,09,16,09,57,15.00
2010,09,16,09,58,15.00
2010,09,16,09,59,15.00
2010,09,16,10,00,15.00
2010,09,16,10,01,15.00
2010,09,16,10,02,15.00
2010,09,16,10,03,15.00
2010,09,16,10,04,15.00
2010,09,16,10,05,15.10
2010,09,16,10,06,15.20
2010,09,16,10,07,15.30
2010,09,16,10,08,15.30
2010,09,16,10,09,15.40
2010,09,16,10,10,15.40
2010,09,16,10,11,15.40
2010,09,16,10,12,15.40
2010,09,16,10,13,15.40
2010,09,16,10,14,15.40
2010,09,16,10,15,15.40
2010,09,16,10,16,15.30
2010,09,16,10,17,15.30
2010,09,16,10,18,15.30
2010,09,16,10,19,15.30
2010,09,16,10,20,15.30
2010,09,16,10,21,15.30
2010,09,16,10,22,15.30
2010,09,16,10,23,15.30
2010,09,16,10,24,15.30
2010,09,16,10,25,15.40
2010,09,16,10,26,15.40
2010,09,16,10,27,15.40
2010,09,16,10,28,15.40
2010,09,16,10,29,15.40
2010,09,16,10,30,15.40
2010,09,16,10,31,15.40
2010,09,16,10,32,15.40
2010,09,16,10,33,15.40
2010,09,16,10,34,15.40
2010,09,16,10,35,15.40
2010,09,16,10,36,15.40
2010,09,16,10,37,15.50
2010,09,16,10,38,15.50
2010,09,16,10,39,15.60
2010,09,16,10,40,15.60
2010,09,16,10,41,15.60
2010,09,16,10,42,15.70
2010,09,16,10,43,15.70
2010,09,16,10,44,15.70
2010,09,16,10,45,15.70
2010,09,16,10,46,15.70
2010,09,16,10,47,15.70
2010,09,16,10,48,15.70
2010,09,16,10,49,15.70
2010,09,16,10,50,15.70
2010,09,16,10,51,15.80
2010,09,16,10,52,15.80
2010,09,16,10,53,15.80
2010,09,16,10,54,15.90
2010,09,16,10,55,15.90
2010,09,16,10,56,16.00
2010,09,16,10,57,16.10
2010,09,16,10,58,16.10
2010,09,16,10,59,16.10
2010,09,16,11,00,16.20
2010,09,16,11,01,16.20
2010,09,16,11,02,16.20
2010,09,16,11,03,16.30
2010,09,16,11,04,16.30
2010,09,16,11,05,16.40
2010,09,16,11,06,16.40
2010,09,16,11,07,16.50
2010,09,16,11,08,16.50
2010,09,16,11,09,16.60
2010,09,16,11,10,16.60
2010,09,16,11,11,16.60
2010,09,16,11,12,16.70
2010,09,16,11,13,16.70
2010,09,16,11,14,16.70
2010,09,16,11,15,16.80
2010,09,16,11,16,16.80
2010,09,16,11,17,16.80
2010,09,16,11,18,16.80
2010,09,16,11,19,16.80
2010,09,16,11,20,16.80
2010,09,16,11,21,16.80
2010,09,16,11,22,16.80
2010,09,16,11,23,16.80
2010,09,16,11,24,16.70
2010,09,16,11,25,16.70
2010,09,16,11,26,16.70
2010,09,16,11,27,16.70
2010,09,16,11,28,16.70
2010,09,16,11,29,16.70
2010,09,16,11,30,16.70
2010,09,16,11,31,16.70
2010,09,16,11,32,16.70
2010,09,16,11,33,16.70
2010,09,16,11,34,16.70
2010,09,16,11,35,16.70
2010,09,16,11,36,16.70
2010,09,16,11,37,16.60
2010,09,16,11,38,16.60
2010,09,16,11,39,16.60
2010,09,16,11,40,16.50
2010,09,16,11,41,16.50
2010,09,16,11,42,16.40
2010,09,16,11,43,16.40
2010,09,16,11,44,16.40
2010,09,16,11,45,16.40
2010,09,16,11,46,16.40
2010,09,16,11,47,16.40
2010,09,16,11,48,16.40
2010,09,16,11,49,16.40
2010,09,16,11,50,16.40
2010,09,16,11,51,16.40
2010,09,16,11,52,16.40
2010,09,16,11,53,16.40
2010,09,16,11,54,16.40
2010,09,16,11,55,16.50
2010,09,16,11,56,16.50
2010,09,16,11,57,16.50
2010,09,16,11,58,16.50
2010,09,16,11,59,16.50
2010,09,16,12,00,16.50
2010,09,16,12,01,16.60
2010,09,16,12,02,16.60
2010,09,16,12,03,16.60
2010,09,16,12,04,16.60
2010,09,16,12,05,16.70
2010,09,16,12,06,16.70
2010,09,16,12,07,16.70
2010,09,16,12,08,16.70
2010,09,16,12,09,16.70
2010,09,16,12,10,16.70
2010,09,16,12,11,16.70
2010,09,16,12,12,16.70
2010,09,16,12,13,16.70
2010,09,16,12,14,16.60
2010,09,16,12,15,16.60
2010,09,16,12,16,16.60
2010,09,16,12,17,16.60
2010,09,16,12,18,16.60
2010,09,16,12,19,16.60
2010,09,16,12,20,16.60
2010,09,16,12,21,16.60
2010,09,16,12,22,16.60
2010,09,16,12,23,16.60
2010,09,16,12,24,16.60
2010,09,16,12,25,16.60
2010,09,16,12,26,16.60
2010,09,16,12,27,16.70
2010,09,16,12,28,16.70
2010,09,16,12,29,16.70
2010,09,16,12,30,16.70
2010,09,16,12,31,16.70
2010,09,16,12,32,16.70
2010,09,16,12,33,16.70
2010,09,16,12,34,16.70
2010,09,16,12,35,16.60
2010,09,16,12,36,16.60
2010,09,16,12,37,16.60
2010,09,16,12,38,16.60
2010,09,16,12,39,16.70
2010,09,16,12,40,16.70
2010,09,16,12,41,16.80
2010,09,16,12,42,16.80
2010,09,16,12,43,16.90
2010,09,16,12,44,16.90
2010,09,16,12,45,16.90
2010,09,16,12,46,16.90
2010,09,16,12,47,16.90
2010,09,16,12,48,16.90
2010,09,16,12,49,16.90
2010,09,16,12,50,16.90
2010,09,16,12,51,16.90
2010,09,16,12,52,16.90
2010,09,16,12,53,16.90
2010,09,16,12,54,16.90
2010,09,16,12,55,17.00
2010,09,16,12,56,17.00
2010,09,16,12,57,17.10
2010,09,16,12,58,17.10
2010,09,16,12,59,17.00
2010,09,16,13,00,17.00
2010,09,16,13,01,17.00
2010,09,16,13,02,17.00
2010,09,16,13,03,17.00
2010,09,16,13,04,17.00
2010,09,16,13,05,17.00
2010,09,16,13,06,17.10
2010,09,16,13,07,17.10
2010,09,16,13,08,17.10
2010,09,16,13,09,17.10
2010,09,16,13,10,17.20
2010,09,16,13,11,17.20
2010,09,16,13,12,17.20
2010,09,16,13,13,17.20
2010,09,16,13,14,17.30
2010,09,16,13,15,17.30
2010,09,16,13,16,17.30
2010,09,16,13,17,17.40
2010,09,16,13,18,17.40
2010,09,16,13,19,17.40
2010,09,16,13,20,17.40
2010,09,16,13,21,17.30
2010,09,16,13,22,17.40
2010,09,16,13,23,17.40
2010,09,16,13,24,17.40
2010,09,16,13,25,17.40
2010,09,16,13,26,17.40
2010,09,16,13,27,17.40
2010,09,16,13,28,17.40
2010,09,16,13,29,17.40
2010,09,16,13,30,17.40
2010,09,16,13,31,17.30
2010,09,16,13,32,17.20
2010,09,16,13,33,17.10
2010,09,16,13,34,17.10
2010,09,16,13,35,17.00
2010,09,16,13,36,16.90
2010,09,16,13,37,16.90
2010,09,16,13,38,16.80
2010,09,16,13,39,16.90
2010,09,16,13,40,16.90
2010,09,16,13,41,16.90
2010,09,16,13,42,16.90
2010,09,16,13,43,16.90
2010,09,16,13,44,16.90
2010,09,16,13,45,17.00
2010,09,16,13,46,17.00
2010,09,16,13,47,17.00
2010,09,16,13,48,16.90
2010,09,16,13,49,16.90
2010,09,16,13,50,16.90
2010,09,16,13,51,16.90
2010,09,16,13,52,16.90
2010,09,16,13,53,16.90
2010,09,16,13,54,16.90
2010,09,16,13,55,16.90
2010,09,16,13,56,16.90
2010,09,16,13,57,17.00
2010,09,16,13,58,17.00
2010,09,16,13,59,17.00
2010,09,16,14,00,17.10
2010,09,16,14,01,17.20
2010,09,16,14,02,17.20
2010,09,16,14,03,17.30
2010,09,16,14,04,17.30
2010,09,16,14,05,17.30
2010,09,16,14,06,17.40
2010,09,16,14,07,17.40
2010,09,16,14,08,17.40
2010,09,16,14,09,17.40
2010,09,16,14,10,17.40
2010,09,16,14,11,17.50
2010,09,16,14,12,17.50
2010,09,16,14,13,17.50
2010,09,16,14,14,17.40
2010,09,16,14,15,17.40
2010,09,16,14,16,17.40
2010,09,16,14,17,17.30
2010,09,16,14,18,17.30
2010,09,16,14,19,17.40
2010,09,16,14,20,17.40
2010,09,16,14,21,17.40
2010,09,16,14,22,17.40
2010,09,16,14,23,17.40
2010,09,16,14,24,17.40
2010,09,16,14,25,17.40
2010,09,16,14,26,17.40
2010,09,16,14,27,17.40
2010,09,16,14,28,17.40
2010,09,16,14,29,17.50
2010,09,16,14,30,17.50
2010,09,16,14,31,17.60
2010,09,16,14,32,17.60
2010,09,16,14,33,17.60
2010,09,16,14,34,17.70
2010,09,16,14,35,17.70
2010,09,16,14,36,17.80
2010,09,16,14,37,17.80
2010,09,16,14,38,17.80
2010,09,16,14,39,17.90
2010,09,16,14,40,17.90
2010,09,16,14,41,18.00
2010,09,16,14,42,18.00
2010,09,16,14,43,18.10
2010,09,16,14,44,18.10
2010,09,16,14,45,18.10
2010,09,16,14,46,18.10
2010,09,16,14,47,18.10
2010,09,16,14,48,18.20
2010,09,16,14,49,18.20
2010,09,16,14,50,18.20
2010,09,16,14,51,18.20
2010,09,16,14,52,18.20
2010,09,16,14,53,18.20
2010,09,16,14,54,18.20
2010,09,16,14,55,18.20
2010,09,16,14,56,18.20
2010,09,16,14,57,18.20
2010,09,16,14,58,18.20
2010,09,16,14,59,18.20
2010,09,16,15,00,18.10
2010,09,16,15,01,18.10
2010,09,16,15,02,18.10
2010,09,16,15,03,18.10
2010,09,16,15,04,18.10
2010,09,16,15,05,18.10
2010,09,16,15,06,18.10
2010,09,16,15,07,18.10
2010,09,16,15,08,18.10
2010,09,16,15,09,18.20
2010,09,16,15,10,18.20
2010,09,16,15,11,18.20
2010,09,16,15,12,18.20
2010,09,16,15,13,18.20
2010,09,16,15,14,18.20
2010,09,16,15,15,18.20
2010,09,16,15,16,18.20
2010,09,16,15,17,18.20
2010,09,16,15,18,18.20
2010,09,16,15,19,18.20
2010,09,16,15,20,18.20
2010,09,16,15,21,18.20
2010,09,16,15,22,18.20
2010,09,16,15,23,18.20
2010,09,16,15,24,18.20
2010,09,16,15,25,18.10
2010,09,16,15,26,18.00
2010,09,16,15,27,18.00
2010,09,16,15,28,17.90
2010,09,16,15,29,17.90
2010,09,16,15,30,17.90
2010,09,16,15,31,17.80
2010,09,16,15,32,17.80
2010,09,16,15,33,17.80
2010,09,16,15,34,17.80
2010,09,16,15,35,17.90
2010,09,16,15,36,17.90
2010,09,16,15,37,17.90
2010,09,16,15,38,17.90
2010,09,16,15,39,17.90
2010,09,16,15,40,17.90
2010,09,16,15,41,17.90
2010,09,16,15,42,17.90
2010,09,16,15,43,17.90
2010,09,16,15,44,18.00
2010,09,16,15,45,18.00
2010,09,16,15,46,18.00
2010,09,16,15,47,18.00
2010,09,16,15,48,18.10
2010,09,16,15,49,18.00
2010,09,16,15,50,18.00
2010,09,16,15,51,18.00
2010,09,16,15,52,17.90
2010,09,16,15,53,17.90
2010,09,16,15,54,17.90
2010,09,16,15,55,17.80
2010,09,16,15,56,17.80
2010,09,16,15,57,17.80
2010,09,16,15,58,17.70
2010,09,16,15,59,17.70
2010,09,16,16,00,17.70
2010,09,16,16,01,17.60
2010,09,16,16,02,17.60
2010,09,16,16,03,17.60
2010,09,16,16,04,17.50
2010,09,16,16,05,17.50
2010,09,16,16,06,17.50
2010,09,16,16,07,17.40
2010,09,16,16,08,17.40
2010,09,16,16,09,17.40
2010,09,16,16,10,17.40
2010,09,16,16,11,17.40
2010,09,16,16,12,17.40
2010,09,16,16,13,17.40
2010,09,16,16,14,17.40
2010,09,16,16,15,17.40
2010,09,16,16,16,17.40
2010,09,16,16,17,17.30
2010,09,16,16,18,17.30
2010,09,16,16,19,17.20
2010,09,16,16,20,17.20
2010,09,16,16,21,17.20
2010,09,16,16,22,17.10
2010,09,16,16,23,17.10
2010,09,16,16,24,17.10
2010,09,16,16,25,17.10
2010,09,16,16,26,17.10
2010,09,16,16,27,17.10
2010,09,16,16,28,17.10
2010,09,16,16,29,17.10
2010,09,16,16,30,17.10
2010,09,16,16,31,17.00
2010,09,16,16,32,17.00
2010,09,16,16,33,16.90
2010,09,16,16,34,16.90
2010,09,16,16,35,16.90
2010,09,16,16,36,16.80
2010,09,16,16,37,16.80
2010,09,16,16,38,16.80
2010,09,16,16,39,16.80
2010,09,16,16,40,16.80
2010,09,16,16,41,16.70
2010,09,16,16,42,16.70
2010,09,16,16,43,16.70
2010,09,16,16,44,16.70
2010,09,16,16,45,16.70
2010,09,16,16,46,16.70
2010,09,16,16,47,16.70
2010,09,16,16,48,16.70
2010,09,16,16,49,16.70
2010,09,16,16,50,16.70
2010,09,16,16,51,16.70
2010,09,16,16,52,16.70
2010,09,16,16,53,16.70
2010,09,16,16,54,16.70
2010,09,16,16,55,16.70
2010,09,16,16,56,16.70
2010,09,16,16,57,16.70
2010,09,16,16,58,16.70
2010,09,16,16,59,16.70
2010,09,16,17,00,16.60
2010,09,16,17,01,16.60
2010,09,16,17,02,16.60
2010,09,16,17,03,16.60
2010,09,16,17,04,16.60
2010,09,16,17,05,16.50
2010,09,16,17,06,16.50
2010,09,16,17,07,16.50
2010,09,16,17,08,16.50
2010,09,16,17,09,16.50
2010,09,16,17,10,16.50
2010,09,16,17,11,16.50
2010,09,16,17,12,16.50
2010,09,16,17,13,16.50
2010,09,16,17,14,16.50
2010,09,16,17,15,16.50
2010,09,16,17,16,16.50
2010,09,16,17,17,16.50
2010,09,16,17,18,16.50
2010,09,16,17,19,16.50